This demonstration page uses our WeatherBlox Daily Observations layout. Learn more.

Left ArrowRight Arrow

Hourly Observations for January 6, 2017

Temp ( °F °C ) Dew Point ( °F °C ) Humidity (%) Winds ( mph kmh ) Pressure ( in mb ) Visibility ( mi km ) Precip ( " mm )
12:53 am 00:53 Clear 34 1.1 15 -9.4 46 46 N 7 11 30.15 1021 10 16 0.00 0.00
1:53 am 01:53 Clear 34 1.1 15 -9.4 46 46 N 7 11 30.13 1020 10 16 0.00 0.00
2:53 am 02:53 Clear 33 0.6 15 -9.4 47 47 N 7 11 30.15 1021 10 16 0.00 0.00
3:53 am 03:53 Clear 33 0.6 14 -10 45 45 N 7 11 30.12 1020 10 16 0.00 0.00
4:53 am 04:53 Clear 33 0.6 14 -10 45 45 N 12 19 30.13 1020 10 16 0.00 0.00
5:53 am 05:53 Clear 31 -0.6 15 -9.4 52 52 NW 5 7 30.13 1020 10 16 0.00 0.00
6:53 am 06:53 Clear 30 -1.1 15 -9.4 54 54 NNW 6 9 30.15 1021 10 16 0.00 0.00
7:53 am 07:53 Sunny 30 -1.1 16 -8.9 56 56 NNW 5 7 30.14 1021 10 16 0.00 0.00
8:53 am 08:53 Sunny 35 1.7 14 -10 42 42 N 6 9 30.16 1021 10 16 0.00 0.00
9:53 am 09:53 Sunny 38 3.3 15 -9.4 39 39 N 9 15 30.18 1022 10 16 0.00 0.00
9:55 am 09:55 Sunny 37 3 16 -9 41 41 N 12 19 30.18 1022 10 16 0.00 0.00
10:53 am 10:53 Sunny 41 5 17 -8.3 38 38 N 7 11 30.17 1022 10 16 0.00 0.00
11:53 am 11:53 Sunny 44 6.7 17 -8.3 34 34 NNE 7 11 30.14 1021 10 16 0.00 0.00
12:53 pm 12:53 Sunny 46 7.8 17 -8.3 31 31 VRB 3 6 30.11 1020 10 16 0.00 0.00
1:53 pm 13:53 Sunny 49 9.4 18 -7.8 29 29 Calm 30.10 1019 10 16 0.00 0.00
2:53 pm 14:53 Mostly Sunny 48 8.9 17 -8.3 29 29 Calm 30.09 1019 10 16 0.00 0.00
3:53 pm 15:53 Mostly Cloudy 47 8.3 22 -5.6 37 37 SE 3 6 30.08 1019 10 16 0.00 0.00
4:53 pm 16:53 Mostly Cloudy 46 7.8 24 -4.4 42 42 Calm 30.09 1019 10 16 0.00 0.00
5:53 pm 17:53 Cloudy 43 6.1 28 -2.2 56 56 ESE 3 6 30.09 1019 10 16 0.00 0.00
6:53 pm 18:53 Cloudy 41 5 26 -3.3 55 55 Calm 30.11 1020 10 16 0.00 0.00
7:53 pm 19:53 Cloudy 42 5.6 25 -3.9 51 51 N 7 11 30.09 1019 10 16 0.00 0.00
8:53 pm 20:53 Cloudy 42 5.6 25 -3.9 51 51 N 5 7 30.07 1018 10 16 0.00 0.00
9:53 pm 21:53 Cloudy 42 5.6 24 -4.4 49 49 N 7 11 30.07 1018 10 16 0.00 0.00
10:53 pm 22:53 Cloudy 41 5 26 -3.3 55 55 NNW 3 6 30.09 1019 10 16 0.00 0.00
11:53 pm 23:53 Cloudy 41 5 30 -1.1 65 65 N 5 7 30.10 1019 10 16 0.00 0.00

Powered by AerisWeather